Weather History for KCID - February, 2013

Change the Weather History Date:

Monday, February 4, 2013

  Actual Average Record
Temperature  
Mean Temperature 18 °F 21 °F  
Max Temperature 26 °F 30 °F 56 °F (1909)
Min Temperature 9 °F 12 °F -21 °F (1996)
Degree Days  
Heating Degree Days 47 44  
Month to date heating degree days 200 176  
Since 1 July heating degree days 4195 4324  
Cooling Degree Days 0 0  
Month to date cooling degree days 0 0  
Year to date cooling degree days 0 0  
Moisture  
Dew Point 16 °F    
Average Humidity 80    
Maximum Humidity 92    
Minimum Humidity 68    
Precipitation  
Precipitation 0.00 in 0.03 in 0.44 in (1971)
Month to date precipitation T 0.14  
Year to date precipitation 0.94 1.06  
Sea Level Pressure  
Sea Level Pressure 29.92 in    
Wind  
Wind Speed 8 mph (NNE)    
Max Wind Speed 17 mph    
Max Gust Speed 22 mph    
Visibility 9 miles    
Events      
T = Trace of Precipitation, MM = Missing Value Source: NWS Daily Summary

Daily Weather History Graph

Daily Weather History Graph

Search for Another Location

Airport or City:

Trip Planner

Search our weather history database for the weather conditions in past years. The results will help you decide how hot, cold, wet, or windy it might be!

Date:

Astronomy

Feb. 04, 2013 Rise Set
Actual Time 7:15 AM CST 5:26 PM CST
Civil Twilight 6:46 AM CST 5:55 PM CST
Nautical Twilight 6:13 AM CST 6:28 PM CST
Astronomical Twilight 5:40 AM CST 7:01 PM CST
Moon 1:53 AM CST (2/4) 11:48 AM CST (2/4)
Length of Visible Light 11h 08m
Length of Day
10h 10m
Last Quarter, 37% of the Moon is Illuminated
Feb 4
Last Quarter
Feb 10
New
Feb 17
First Quarter
Feb 25
Full
Mar 4
Last Quarter

Hourly Weather History & Observations

Time (CST) Temp. Windchill Dew Point Humidity Pressure Visibility Wind Dir Wind Speed Gust Speed Precip Events Conditions
12:52 AM 24.1 °F 12.0 °F 17.1 °F 75% 29.86 in 10.0 mi ESE 13.8 mph 21.9 mph N/A   Overcast
1:52 AM 25.0 °F 14.8 °F 18.0 °F 75% 29.83 in 10.0 mi SE 10.4 mph - N/A   Overcast
2:52 AM 26.1 °F 17.6 °F 18.0 °F 71% 29.83 in 10.0 mi SE 8.1 mph - N/A   Overcast
4:52 AM 24.8 °F 17.9 °F 19.4 °F 80% 29.77 in 10.0 mi East 5.8 mph - N/A   Mostly Cloudy
5:52 AM 21.9 °F 12.5 °F 17.1 °F 82% 29.81 in 10.0 mi NE 8.1 mph - N/A   Clear
6:52 AM 21.0 °F 11.4 °F 18.0 °F 88% 29.85 in 10.0 mi NNE 8.1 mph - N/A   Mostly Cloudy
7:52 AM 21.9 °F 9.2 °F 18.0 °F 85% 29.87 in 9.0 mi NNE 13.8 mph - N/A   Mostly Cloudy
8:03 AM 21.2 °F 8.9 °F 17.6 °F 86% 29.83 in 8.0 mi NNE 12.7 mph - N/A   Scattered Clouds
8:52 AM 21.0 °F 7.1 °F 18.0 °F 88% 29.90 in 6.0 mi NNE 16.1 mph - N/A   Mostly Cloudy
8:54 AM 21.2 °F 8.3 °F 17.6 °F 86% 29.86 in 6.0 mi NNE 13.8 mph - N/A   Overcast
9:52 AM 19.9 °F 5.7 °F 17.1 °F 89% 29.93 in 6.0 mi NNE 16.1 mph - N/A   Overcast
10:52 AM 21.0 °F 8.1 °F 17.1 °F 85% 29.95 in 8.0 mi NNE 13.8 mph - N/A   Overcast
11:52 AM 21.0 °F 8.1 °F 16.0 °F 81% 29.99 in 9.0 mi North 13.8 mph - N/A   Overcast
12:52 PM 23.0 °F 11.1 °F 17.1 °F 78% 29.99 in 10.0 mi North 12.7 mph - N/A   Scattered Clouds
1:52 PM 23.0 °F 12.4 °F 17.1 °F 78% 29.95 in 10.0 mi NNE 10.4 mph - N/A   Mostly Cloudy
2:52 PM 24.1 °F 15.2 °F 17.1 °F 75% 29.94 in 10.0 mi North 8.1 mph - N/A   Overcast
3:19 PM 24.8 °F 16.1 °F 15.8 °F 69% 29.92 in 10.0 mi North 8.1 mph - N/A   Scattered Clouds
3:52 PM 23.0 °F 13.9 °F 16.0 °F 74% 30.00 in 10.0 mi NNW 8.1 mph - N/A   Partly Cloudy
4:52 PM 21.9 °F 12.5 °F 16.0 °F 78% 29.99 in 10.0 mi NW 8.1 mph - N/A   Partly Cloudy
5:52 PM 18.0 °F 9.8 °F 14.0 °F 84% 29.99 in 10.0 mi WNW 5.8 mph - N/A   Clear
6:52 PM 19.0 °F 11.1 °F 14.0 °F 81% 30.00 in 10.0 mi NW 5.8 mph - N/A   Clear
7:52 PM 17.1 °F - 12.9 °F 84% 30.01 in 10.0 mi Calm Calm - N/A   Clear
8:52 PM 12.9 °F - 10.0 °F 88% 29.99 in 9.0 mi Calm Calm - N/A   Clear
9:52 PM 12.9 °F - 10.0 °F 88% 29.98 in 9.0 mi Calm Calm - N/A   Clear
10:52 PM 12.0 °F 5.9 °F 10.0 °F 92% 29.97 in 7.0 mi SSE 3.5 mph - N/A   Clear
11:52 PM 12.9 °F 5.2 °F 10.0 °F 88% 29.97 in 7.0 mi SSW 4.6 mph - N/A   Partly Cloudy